Torna al catalogo

CZ-4B DEB

AttivoSSO
NORAD 36289·DEBRIS·🇨🇳 China

Lanciato Oct 25, 2008 da Taiyuan Satellite Launch Center

Loading…

Prossimi Passaggi (prossime 24 ore)

TLE

AggiornatoSource: Space-Track

Epoca: Sep 11, 2026, 19:49 UTC

1 36289U 08053K   26254.82633694  .00001597  00000-0  11585-3 0  9999
2 36289  97.8281 284.1839 0011554 125.7996 234.4305 15.05363693961104

Traccia CZ-4B DEB in tempo reale con AllMySat

Download on the App Store